Regional Weather Roundup
Issued by NWS

Home | Current Version | Previous Version | Text Only | Print | Product List | Glossary On
Versions: 1 2 3 4 5 6 7 8 9 10 11 12 13 14 15 16 17 18 19 20 21 22 23 24 25 26 27 28 29 30 31 32 33 34 35 36 37 38 39 40 41 42 43 44 45 46 47 48 49 50
766
ASUS44 KLUB 081810
RWRTX
WEST TEXAS WEATHER ROUNDUP
NATIONAL WEATHER SERVICE LUBBOCK TX
1200 PM CST MON FEB 08 2016

NOTE: "FAIR" INDICATES FEW OR NO CLOUDS BELOW 12,000 FEET WITH NO
SIGNIFICANT WEATHER AND/OR OBSTRUCTIONS TO VISIBILITY.

TXZ004-006>008-010-012-014-016-OKZ002-081900-
TEXAS PANHANDLE/OKLAHOMA PANHANDLE

CITY           SKY/WX    TMP DP  RH WIND       PRES   REMARKS
AMARILLO       SUNNY     48  15  26 NW17G26   30.46F
BORGER         SUNNY     48  10  21 N20G30    30.45F
CANADIAN       SUNNY     48   1  15 N25G38    30.41F
DALHART        SUNNY     44  18  35 W9        30.47F
DUMAS          SUNNY     47  16  29 NW14G21   30.45F
GUYMON         SUNNY     47  13  25 NW21G32   30.43F
PAMPA          SUNNY     48  10  21 N33G44    30.41F
PERRYTON       SUNNY     47   9  21 N29       30.42F
$$

TXZ026-029-035-045-048-081900-
SOUTHERN PANHANDLE/SOUTH PLAINS/ROLLING PLAINS

CITY           SKY/WX    TMP DP  RH WIND       PRES   REMARKS
CHILDRESS      SUNNY     53  -1  11 N23G32    30.43F
SEMINOLE       SUNNY     46   7  20 NE5       30.51F
LUBBOCK        MOSUNNY   50  10  20 N16       30.47F
PLAINVIEW      SUNNY     47  13  25 N21G26    30.45F
SNYDER           N/A     49   7  18 N12G20    30.49F
$$

TXZ052-054-060>062-072-078-127-140-154-169-081900-
PERMIAN BASIN/CONCHO VALLEY/BIG COUNTRY/EDWARDS PLATEAU

CITY           SKY/WX    TMP DP  RH WIND       PRES   REMARKS
ABILENE        SUNNY     50  10  20 N16       30.46F
BIG SPRING     SUNNY     47   8  20 N6        30.52F
BROWNWOOD      SUNNY     52   9  17 NW17G23   30.45F
JUNCTION       MOSUNNY   54   7  15 N16       30.47F
MIDLAND        SUNNY     49   7  18 NE8       30.51F
ODESSA         SUNNY     47   6  18 E6        30.51F
SAN ANGELO     SUNNY     52   5  15 N13       30.50F
SONORA         MOSUNNY   50   7  17 N12       30.54F
SWEETWATER     SUNNY     50   4  15 NW16      30.50F
WINK           SUNNY     47   6  18 E5        30.53F
$$

TXZ055-058-074-075-080-082-081900-
FAR WEST/SOUTHWEST MOUNTAINS/TRANS PECOS

CITY           SKY/WX    TMP DP  RH WIND       PRES   REMARKS
ALPINE         PTSUNNY   42  13  30 NE9       30.56F
DRYDEN           N/A     54   8  16 NE7G17    30.51F
EL PASO        PTSUNNY   49  18  29 E3        30.45F
FORT STOCKTON  SUNNY     45   8  22 CALM      30.54F
GUADALUPE PASS SUNNY     37   7  28 E20       30.47F WCI  27
MARFA          SUNNY     43  13  29 NE14      30.49F
PECOS          SUNNY     46  10  23 CALM      30.55F
PRESIDIO       FAIR      55  18  23 NE15G22   30.46F
$$

TXZ014-016-019-021>030-083-081900
TEXAS TECH WEST TEXAS MESONET/TEXAS PANHANDLE/NORTHERN SOUTH PLAINS

CITY           SKY/WX    TMP DP  RH WIND       PRES   REMARKS
ABERNATHY 5ENE   N/A     47  15  27 N16       30.47F
AMARILLO 9NNE    N/A     49  17  28 NW12      30.45F
AMARILLO 7SSE    N/A     47  16  29 N16       30.46F
AMHERST 1NE      N/A     46  15  29 N9        30.48F
BOOTLEG 11WNW    N/A     40  16  37 NW5       30.49F
CANADIAN 6E      N/A     46   3  17 NW30      30.38F
CAPROCK CYN SP   N/A     50  10  20 NW9       30.46F
CHILDRESS 2NNE   N/A     51  -1  12 NW23      30.42F
CLARENDON 2WSW   N/A     50   7  17 NW25      30.44S
CLAUDE 12SW      N/A     48  13  24 NW20      30.44F
DIMMITT 2NE      N/A     44  17  33 NW12      30.46F
FLOYDADA 2NNE    N/A     48   8  20 N16       30.46F
FRIONA 2NE       N/A     44  17  33 NW8       30.48F
GOODLETT 3W      N/A     52   2  13 NW24      30.42F
HART 3N          N/A     45  18  35 NW14      30.47F
HEREFORD 2NW     N/A     44  16  33 NW10      30.47F
MCLEAN 1E        N/A     47   3  16 N29G39    30.39S
MEMPHIS 1NE      N/A     51   2  13 NW26      30.44F
MULESHOE 2SSW    N/A     46  15  29 NW6       30.49F
OLTON 6S         N/A     46  15  28 N13       30.47F
PALO DURO SP     N/A     47  14  26 NW17      30.46F
PAMPA 2E         N/A     46   9  22 NW30G40   30.39F
PLAINVIEW 1S     N/A     46  15  28 N16       30.46F
SILVERTON 7ESE   N/A     49  10  20 N24       30.44F
TULIA 2ENE       N/A     46  17  31 NW17      30.46F
TURKEY 2WSW      N/A     51   7  16 N18       30.44F
UMBARGER 3NNE    N/A     45  18  34 N13       30.47F
$$

TXZ033>036-039>041-045>048-081900
TEXAS TECH WEST TEXAS MESONET/SOUTH PLAINS

CITY           SKY/WX    TMP DP  RH WIND       PRES   REMARKS
AIKEN 3WSW       N/A     48  15  27 N18       30.47F
ANDREWS 2NE      N/A     48   3  16 N3        30.51F
ANTON 6SSW       N/A     46  14  27 N12       30.48F
BROWNFIELD 2S    N/A     45   6  20 N8        30.49F
DENVR CTY 7WNW   N/A     45   8  22 W2        30.49F
GAIL 2ESE        N/A     51   6  16 N8        30.48F
LAMESA 2SE       N/A     48   8  20 N9        30.50F
LEVELLAND 4S     N/A     46   9  21 N7        30.49F
LUBBOCK 3WNW     N/A     49   9  20 NW9       30.48F
MORTON 1ENE      N/A     44  12  27 N8        30.49S
ODONNELL 1N      N/A     47   2  15 N10       30.48F
PLAINS 3N        N/A     46   7  21 N3        30.49F
RALLS 1SE        N/A     48  12  23 N14       30.47F
REESE CENTER     N/A     47   9  21 N12       30.48F
SEAGRAVES 1SW    N/A     46   6  19 N5        30.49F
SEMINOLE 2NNE    N/A     46   3  17 NE6       30.50F
SLATON 2NE       N/A     47   7  19 N13       30.48F
SNYDER 3E        N/A     51   8  17 N10       30.47F
SUNDOWN 8SW      N/A     46   9  22 N1        30.48F
TAHOKA 3NNE      N/A     50   6  16 N10       30.48F
WOLFFORTH 6SSW   N/A     47   9  21 N14       30.49F
$$

TXZ031-032-036>038-042>044-081900-
TEXAS TECH WEST TEXAS MESONET/ROLLING PLAINS

CITY           SKY/WX    TMP DP  RH WIND       PRES   REMARKS
ASPERMONT 3NE    N/A     54   2  12 N18       30.46F
FLUVANNA 3WNW    N/A     48   5  17 N14       30.47F
GRAHAM 5SSW      N/A     48   6  17 N13       30.48F
GUTHRIE 10WSW    N/A     52   2  13 N20       30.45F
HASKELL 1NW      N/A     52   5  15 NW20      30.44F
JAYTON 1SSE      N/A     53   3  13 NW16      30.46F
KNOX CITY 3NW    N/A     53   5  14 NW18G28   30.46F
LK A HENRY 1NW   N/A     52   4  14 N10       30.48F
NORTHFIELD 1S    N/A     53   2  12 NW21G30   30.44F
ODELL 4ENE       N/A     52   4  14 NW22      30.41F
PADUCAH 10SW     N/A     52   5  15 N20       30.45F
POST 1NE         N/A     51   5  15 N10       30.48F
RRING SPRGS 3N   N/A     50   8  18 N17       30.45F
SEYMOUR 3NW      N/A     52   7  16 NW17      30.42F
SPUR 1W          N/A     52   3  14 N17       30.45F
WEINERT 2NNE     N/A     52   7  16 N20       30.45F
WHITE RVR 6NE    N/A     50   7  17 N16       30.46F
$$

TXZ052-054-060>062-072-078-127-140-154-169-081900-
TEXAS TECH WEST TEXAS MESONET/PERMIAN BASIN/
CONCHO VALLEY/BIG COUNTRY/EDWARDS PLATEAU

CITY           SKY/WX    TMP DP  RH WIND       PRES   REMARKS
COYANOSA 2N      N/A     49   8  19 W1        30.54F
JUNCTION 1SSW    N/A     53  12  19 N8        30.48F
MERTZON 3NNE     N/A     52   9  17 N5        30.50F
SAN ANGELO 7NW   N/A     52   4  14 NW12      30.49F
STRLNG CT 4WSW   N/A     49   7  18 N8        30.50F
ST LAWRNCE 5SW   N/A     47   6  18 N8        30.50F
SWEETWATR 11SW   N/A     50   5  16 N14       30.48F
WALL 1E          N/A     49   6  16 N10       30.50F
$$

TXZ055-058-074-075-080-082-081900-
TEXAS TECH WEST TEXAS MESONET/FAR WEST/SOUTHWEST MOUNTAINS/TRANS PECOS

CITY           SKY/WX    TMP DP  RH WIND       PRES   REMARKS
PRSMN GAP BBNP   N/A     50   6  16 NE17      30.50F
GUADLPE MTN NP   N/A     38   5  25 E8        30.48F WCI  32
$$




USA.gov is the U.S. government's official web portal to all federal, state and local government web resources and services.